Miscellaneous Local Product
Issued by NWS Hastings, NE

Home | Current Version | Previous Version | Graphics & Text | Print | Product List | Glossary On
Versions: 1 2 3 4 5 6 7 8 9 10 11 12 13 14 15 16 17 18 19 20 21 22 23 24 25 26 27 28 29 30 31 32 33 34 35 36 37 38 39 40 41 42 43 44 45 46 47 48 49 50
000
AXUS43 KGID 232302
MISGRI

GID CWA HOURLY WEATHER ROUNDUP
NATIONAL WEATHER SERVICE HASTINGS NE
600 PM CDT SAT MAY 23 2015

NOTE: "FAIR" INDICATES FEW OR NO CLOUDS BELOW 12,000 FEET WITH NO
SIGNIFICANT WEATHER AND/OR OBSTRUCTIONS TO VISIBILITY.

...SOUTH CENTRAL NEBRASKA...

CITY           SKY/WX    TMP DP  RH WIND       PRES   REMARKS
GRAND ISLAND   CLOUDY    61  55  81 E15       30.01F
HASTINGS       CLOUDY    60  56  86 E14       29.98F
KEARNEY        CLOUDY    59  55  88 E15G21    29.98F
ORD            CLOUDY    59  54  83 E12       30.00F
YORK           CLOUDY    61  57  88 E15       30.05F
AURORA         CLOUDY    61  59  93 E16       30.01F
LEXINGTON      CLOUDY    60  57  92 E17       29.97F
HOLDREGE       CLOUDY    60  56  87 E20       29.97F
HEBRON         CLOUDY    61  58  88 E12G17    30.00F

...NEBRASKA PANHANDLE...

CITY           SKY/WX    TMP DP  RH WIND       PRES   REMARKS
CHADRON        CLOUDY    58  53  84 SE12      29.96F
ALLIANCE       LGT RAIN  54  53  97 E13       29.95F
SCOTTSBLUFF    LGT RAIN  55  54  96 E15       29.94S
SIDNEY         PTSUNNY   57  51  80 E13       29.93S

...WESTERN AND NORTH CENTRAL NEBRASKA...

CITY           SKY/WX    TMP DP  RH WIND       PRES   REMARKS
VALENTINE      CLOUDY    57  54  89 SE12      30.03R
AINSWORTH      LGT RAIN  56  55  98 SE13      30.04S
ONEILL         CLOUDY    60  55  86 SE9       30.06F
BROKEN BOW     CLOUDY    59  55  87 E10       30.00F
IMPERIAL       PTSUNNY   64  53  67 SE12      29.91F
NORTH PLATTE   CLOUDY    60  55  83 E14       29.97F
MCCOOK         CLOUDY    65  55  70 SE17      29.93S

...EASTERN NEBRASKA...

CITY           SKY/WX    TMP DP  RH WIND       PRES   REMARKS
NORFOLK        CLOUDY    60  55  83 SE12      30.07F
SO SIOUX CITY  CLOUDY    65  54  67 S13       30.09F
TEKAMAH        CLOUDY    64  57  78 SE7       30.10F
COLUMBUS       CLOUDY    61  52  72 SE10      30.10F
ALBION         CLOUDY    60  54  80 SE9       30.05F
OMAHA EPPLEY   CLOUDY    65  58  78 NE3       30.09F
OFFUTT AFB     CLOUDY    65  59  81 E2        30.08F
MILLARD        CLOUDY    65  58  79 SE3       30.09F
LINCOLN        LGT RAIN  62  60  93 SE7       30.07F FOG
NEBRASKA CITY  LGT RAIN  62  61  99 CALM      30.09F
BEATRICE       CLOUDY    61  60  96 E6        30.03F
FALLS CITY     LGT RAIN  64  60  87 SE7       30.08S FOG

...NORTHERN KANSAS...

CITY           SKY/WX    TMP DP  RH WIND       PRES   REMARKS
GOODLAND       CLOUDY    64  56  75 SE16G26   29.88F
HILL CITY      CLOUDY    61  55  81 SE14G22   29.94S
NORTON         CLOUDY    61  52  72 E16G22    29.95R
PHILLIPSBURG   CLOUDY    63  61  94 E15       29.96S
SMITH CENTER   CLOUDY    59  57  94 E17       29.97S
HAYS           CLOUDY    61  52  72 E13       29.94F
RUSSELL        CLOUDY    60  58  92 E14       29.93F
CONCORDIA      CLOUDY    60  58  92 E10G20    29.97F
SALINA         LGT RAIN  60  58  92 E26G41    29.86F
TOPEKA         TSTM      63  62  97 W9        30.07R FOG



USA.gov is the U.S. government's official web portal to all federal, state and local government web resources and services.